Year,Month,Day,Hour,Minute,Value (Times are PST for temperature in C)
2015,06,16,00,00,15.50
2015,06,16,00,01,15.50
2015,06,16,00,02,15.50
2015,06,16,00,03,15.50
2015,06,16,00,04,15.50
2015,06,16,00,05,15.50
2015,06,16,00,06,15.50
2015,06,16,00,07,15.50
2015,06,16,00,08,15.50
2015,06,16,00,09,15.50
2015,06,16,00,10,15.40
2015,06,16,00,11,15.40
2015,06,16,00,12,15.40
2015,06,16,00,13,15.40
2015,06,16,00,14,15.40
2015,06,16,00,15,15.40
2015,06,16,00,16,15.40
2015,06,16,00,17,15.40
2015,06,16,00,18,15.40
2015,06,16,00,19,15.30
2015,06,16,00,20,15.30
2015,06,16,00,21,15.30
2015,06,16,00,22,15.30
2015,06,16,00,23,15.30
2015,06,16,00,24,15.20
2015,06,16,00,25,15.20
2015,06,16,00,26,15.20
2015,06,16,00,27,15.20
2015,06,16,00,28,15.10
2015,06,16,00,29,15.10
2015,06,16,00,30,15.10
2015,06,16,00,31,15.00
2015,06,16,00,32,15.00
2015,06,16,00,33,15.00
2015,06,16,00,34,15.00
2015,06,16,00,35,15.00
2015,06,16,00,36,15.00
2015,06,16,00,37,15.00
2015,06,16,00,38,15.00
2015,06,16,00,39,15.00
2015,06,16,00,40,15.00
2015,06,16,00,41,15.00
2015,06,16,00,42,15.00
2015,06,16,00,43,15.00
2015,06,16,00,44,15.00
2015,06,16,00,45,15.00
2015,06,16,00,46,15.00
2015,06,16,00,47,15.00
2015,06,16,00,48,14.90
2015,06,16,00,49,14.90
2015,06,16,00,50,14.90
2015,06,16,00,51,14.90
2015,06,16,00,52,14.80
2015,06,16,00,53,14.80
2015,06,16,00,54,14.80
2015,06,16,00,55,14.80
2015,06,16,00,56,14.80
2015,06,16,00,57,14.70
2015,06,16,00,58,14.70
2015,06,16,00,59,14.70
2015,06,16,01,00,14.60
2015,06,16,01,01,14.60
2015,06,16,01,02,14.60
2015,06,16,01,03,14.50
2015,06,16,01,04,14.50
2015,06,16,01,05,14.40
2015,06,16,01,06,14.40
2015,06,16,01,07,14.40
2015,06,16,01,08,14.30
2015,06,16,01,09,14.30
2015,06,16,01,10,14.30
2015,06,16,01,11,14.30
2015,06,16,01,12,14.20
2015,06,16,01,13,14.20
2015,06,16,01,14,14.20
2015,06,16,01,15,14.10
2015,06,16,01,16,14.10
2015,06,16,01,17,14.10
2015,06,16,01,18,14.10
2015,06,16,01,19,14.10
2015,06,16,01,20,14.00
2015,06,16,01,21,14.00
2015,06,16,01,22,14.00
2015,06,16,01,23,14.00
2015,06,16,01,24,14.00
2015,06,16,01,25,14.00
2015,06,16,01,26,14.00
2015,06,16,01,27,14.00
2015,06,16,01,28,14.00
2015,06,16,01,29,13.90
2015,06,16,01,30,13.90
2015,06,16,01,31,13.90
2015,06,16,01,32,13.90
2015,06,16,01,33,13.90
2015,06,16,01,34,13.80
2015,06,16,01,35,13.80
2015,06,16,01,36,13.80
2015,06,16,01,37,13.80
2015,06,16,01,38,13.80
2015,06,16,01,39,13.80
2015,06,16,01,40,13.80
2015,06,16,01,41,13.80
2015,06,16,01,42,13.80
2015,06,16,01,43,13.70
2015,06,16,01,44,13.70
2015,06,16,01,45,13.70
2015,06,16,01,46,13.80
2015,06,16,01,47,13.80
2015,06,16,01,48,13.70
2015,06,16,01,49,13.70
2015,06,16,01,50,13.70
2015,06,16,01,51,13.70
2015,06,16,01,52,13.70
2015,06,16,01,53,13.70
2015,06,16,01,54,13.60
2015,06,16,01,55,13.60
2015,06,16,01,56,13.60
2015,06,16,01,57,13.60
2015,06,16,01,58,13.50
2015,06,16,01,59,13.50
2015,06,16,02,00,13.40
2015,06,16,02,01,13.40
2015,06,16,02,02,13.40
2015,06,16,02,03,13.30
2015,06,16,02,04,13.30
2015,06,16,02,05,13.30
2015,06,16,02,06,13.30
2015,06,16,02,07,13.30
2015,06,16,02,08,13.30
2015,06,16,02,09,13.30
2015,06,16,02,10,13.30
2015,06,16,02,11,13.30
2015,06,16,02,12,13.30
2015,06,16,02,13,13.30
2015,06,16,02,14,13.20
2015,06,16,02,15,13.20
2015,06,16,02,16,13.20
2015,06,16,02,17,13.20
2015,06,16,02,18,13.20
2015,06,16,02,19,13.20
2015,06,16,02,20,13.20
2015,06,16,02,21,13.20
2015,06,16,02,22,13.20
2015,06,16,02,23,13.20
2015,06,16,02,24,13.10
2015,06,16,02,25,13.10
2015,06,16,02,26,13.10
2015,06,16,02,27,13.10
2015,06,16,02,28,13.00
2015,06,16,02,29,13.00
2015,06,16,02,30,13.00
2015,06,16,02,31,12.90
2015,06,16,02,32,12.90
2015,06,16,02,33,12.90
2015,06,16,02,34,12.90
2015,06,16,02,35,12.90
2015,06,16,02,36,12.90
2015,06,16,02,37,12.80
2015,06,16,02,38,12.80
2015,06,16,02,39,12.80
2015,06,16,02,40,12.80
2015,06,16,02,41,12.80
2015,06,16,02,42,12.90
2015,06,16,02,43,12.90
2015,06,16,02,44,12.90
2015,06,16,02,45,12.90
2015,06,16,02,46,12.90
2015,06,16,02,47,13.00
2015,06,16,02,48,12.90
2015,06,16,02,49,12.90
2015,06,16,02,50,12.90
2015,06,16,02,51,12.90
2015,06,16,02,52,12.90
2015,06,16,02,53,12.90
2015,06,16,02,54,12.90
2015,06,16,02,55,12.90
2015,06,16,02,56,12.80
2015,06,16,02,57,12.80
2015,06,16,02,58,12.80
2015,06,16,02,59,12.80
2015,06,16,03,00,12.80
2015,06,16,03,01,12.80
2015,06,16,03,02,12.70
2015,06,16,03,03,12.70
2015,06,16,03,04,12.70
2015,06,16,03,05,12.70
2015,06,16,03,06,12.70
2015,06,16,03,07,12.60
2015,06,16,03,08,12.60
2015,06,16,03,09,12.60
2015,06,16,03,10,12.60
2015,06,16,03,11,12.60
2015,06,16,03,12,12.50
2015,06,16,03,13,12.50
2015,06,16,03,14,12.50
2015,06,16,03,15,12.50
2015,06,16,03,16,12.40
2015,06,16,03,17,12.40
2015,06,16,03,18,12.40
2015,06,16,03,19,12.40
2015,06,16,03,20,12.40
2015,06,16,03,21,12.40
2015,06,16,03,22,12.30
2015,06,16,03,23,12.30
2015,06,16,03,24,12.30
2015,06,16,03,25,12.30
2015,06,16,03,26,12.20
2015,06,16,03,27,12.20
2015,06,16,03,28,12.20
2015,06,16,03,29,12.20
2015,06,16,03,30,12.10
2015,06,16,03,31,12.10
2015,06,16,03,32,12.10
2015,06,16,03,33,12.10
2015,06,16,03,34,12.10
2015,06,16,03,35,12.20
2015,06,16,03,36,12.20
2015,06,16,03,37,12.20
2015,06,16,03,38,12.30
2015,06,16,03,39,12.30
2015,06,16,03,40,12.30
2015,06,16,03,41,12.30
2015,06,16,03,42,12.30
2015,06,16,03,43,12.30
2015,06,16,03,44,12.30
2015,06,16,03,45,12.20
2015,06,16,03,46,12.20
2015,06,16,03,47,12.10
2015,06,16,03,48,12.10
2015,06,16,03,49,12.10
2015,06,16,03,50,12.00
2015,06,16,03,51,12.00
2015,06,16,03,52,11.90
2015,06,16,03,53,11.90
2015,06,16,03,54,11.90
2015,06,16,03,55,11.90
2015,06,16,03,56,11.90
2015,06,16,03,57,12.00
2015,06,16,03,58,12.00
2015,06,16,03,59,12.00
2015,06,16,04,00,12.00
2015,06,16,04,01,12.00
2015,06,16,04,02,12.00
2015,06,16,04,03,12.00
2015,06,16,04,04,11.90
2015,06,16,04,05,11.90
2015,06,16,04,06,11.90
2015,06,16,04,07,11.90
2015,06,16,04,08,11.80
2015,06,16,04,09,11.80
2015,06,16,04,10,11.80
2015,06,16,04,11,11.80
2015,06,16,04,12,11.80
2015,06,16,04,13,11.70
2015,06,16,04,14,11.70
2015,06,16,04,15,11.70
2015,06,16,04,16,11.70
2015,06,16,04,17,11.70
2015,06,16,04,18,11.70
2015,06,16,04,19,11.80
2015,06,16,04,20,11.80
2015,06,16,04,21,11.80
2015,06,16,04,22,11.80
2015,06,16,04,23,11.80
2015,06,16,04,24,11.80
2015,06,16,04,25,11.80
2015,06,16,04,26,11.80
2015,06,16,04,27,11.80
2015,06,16,04,28,11.70
2015,06,16,04,29,11.60
2015,06,16,04,30,11.60
2015,06,16,04,31,11.60
2015,06,16,04,32,11.50
2015,06,16,04,33,11.50
2015,06,16,04,34,11.50
2015,06,16,04,35,11.40
2015,06,16,04,36,11.40
2015,06,16,04,37,11.40
2015,06,16,04,38,11.40
2015,06,16,04,39,11.40
2015,06,16,04,40,11.40
2015,06,16,04,41,11.40
2015,06,16,04,42,11.40
2015,06,16,04,43,11.40
2015,06,16,04,44,11.40
2015,06,16,04,45,11.40
2015,06,16,04,46,11.40
2015,06,16,04,47,11.40
2015,06,16,04,48,11.40
2015,06,16,04,49,11.50
2015,06,16,04,50,11.50
2015,06,16,04,51,11.50
2015,06,16,04,52,11.50
2015,06,16,04,53,11.50
2015,06,16,04,54,11.50
2015,06,16,04,55,11.50
2015,06,16,04,56,11.50
2015,06,16,04,57,11.50
2015,06,16,04,58,11.40
2015,06,16,04,59,11.40
2015,06,16,05,00,11.40
2015,06,16,05,01,11.50
2015,06,16,05,02,11.50
2015,06,16,05,03,11.50
2015,06,16,05,04,11.50
2015,06,16,05,05,11.50
2015,06,16,05,06,11.60
2015,06,16,05,07,11.60
2015,06,16,05,08,11.60
2015,06,16,05,09,11.60
2015,06,16,05,10,11.60
2015,06,16,05,11,11.60
2015,06,16,05,12,11.60
2015,06,16,05,13,11.60
2015,06,16,05,14,11.60
2015,06,16,05,15,11.60
2015,06,16,05,16,11.60
2015,06,16,05,17,11.60
2015,06,16,05,18,11.60
2015,06,16,05,19,11.50
2015,06,16,05,20,11.50
2015,06,16,05,21,11.50
2015,06,16,05,22,11.50
2015,06,16,05,23,11.40
2015,06,16,05,24,11.40
2015,06,16,05,25,11.40
2015,06,16,05,26,11.40
2015,06,16,05,27,11.50
2015,06,16,05,28,11.50
2015,06,16,05,29,11.50
2015,06,16,05,30,11.50
2015,06,16,05,31,11.50
2015,06,16,05,32,11.50
2015,06,16,05,33,11.50
2015,06,16,05,34,11.50
2015,06,16,05,35,11.50
2015,06,16,05,36,11.50
2015,06,16,05,37,11.50
2015,06,16,05,38,11.60
2015,06,16,05,39,11.60
2015,06,16,05,40,11.70
2015,06,16,05,41,11.70
2015,06,16,05,42,11.70
2015,06,16,05,43,11.70
2015,06,16,05,44,11.70
2015,06,16,05,45,11.70
2015,06,16,05,46,11.70
2015,06,16,05,47,11.80
2015,06,16,05,48,11.80
2015,06,16,05,49,11.80
2015,06,16,05,50,11.80
2015,06,16,05,51,11.80
2015,06,16,05,52,11.80
2015,06,16,05,53,11.90
2015,06,16,05,54,11.90
2015,06,16,05,55,12.00
2015,06,16,05,56,12.10
2015,06,16,05,57,12.20
2015,06,16,05,58,12.30
2015,06,16,05,59,12.40
2015,06,16,06,00,12.50
2015,06,16,06,01,12.70
2015,06,16,06,02,12.80
2015,06,16,06,03,12.90
2015,06,16,06,04,13.00
2015,06,16,06,05,13.10
2015,06,16,06,06,13.20
2015,06,16,06,07,13.30
2015,06,16,06,08,13.30
2015,06,16,06,09,13.40
2015,06,16,06,10,13.40
2015,06,16,06,11,13.40
2015,06,16,06,12,13.50
2015,06,16,06,13,13.50
2015,06,16,06,14,13.50
2015,06,16,06,15,13.60
2015,06,16,06,16,13.60
2015,06,16,06,17,13.60
2015,06,16,06,18,13.60
2015,06,16,06,19,13.60
2015,06,16,06,20,13.60
2015,06,16,06,21,13.60
2015,06,16,06,22,13.60
2015,06,16,06,23,13.60
2015,06,16,06,24,13.60
2015,06,16,06,25,13.60
2015,06,16,06,26,13.60
2015,06,16,06,27,13.70
2015,06,16,06,28,13.70
2015,06,16,06,29,13.70
2015,06,16,06,30,13.70
2015,06,16,06,31,13.70
2015,06,16,06,32,13.70
2015,06,16,06,33,13.70
2015,06,16,06,34,13.70
2015,06,16,06,35,13.70
2015,06,16,06,36,13.70
2015,06,16,06,37,13.70
2015,06,16,06,38,13.70
2015,06,16,06,39,13.70
2015,06,16,06,40,13.70
2015,06,16,06,41,13.70
2015,06,16,06,42,13.70
2015,06,16,06,43,13.70
2015,06,16,06,44,13.70
2015,06,16,06,45,13.70
2015,06,16,06,46,13.70
2015,06,16,06,47,13.70
2015,06,16,06,48,13.70
2015,06,16,06,49,13.70
2015,06,16,06,50,13.60
2015,06,16,06,51,13.60
2015,06,16,06,52,13.60
2015,06,16,06,53,13.60
2015,06,16,06,54,13.60
2015,06,16,06,55,13.60
2015,06,16,06,56,13.60
2015,06,16,06,57,13.50
2015,06,16,06,58,13.50
2015,06,16,06,59,13.50
2015,06,16,07,00,13.50
2015,06,16,07,01,13.50
2015,06,16,07,02,13.50
2015,06,16,07,03,13.50
2015,06,16,07,04,13.50
2015,06,16,07,05,13.50
2015,06,16,07,06,13.60
2015,06,16,07,07,13.60
2015,06,16,07,08,13.60
2015,06,16,07,09,13.60
2015,06,16,07,10,13.60
2015,06,16,07,11,13.60
2015,06,16,07,12,13.60
2015,06,16,07,13,13.70
2015,06,16,07,14,13.70
2015,06,16,07,15,13.70
2015,06,16,07,16,13.80
2015,06,16,07,17,13.80
2015,06,16,07,18,13.80
2015,06,16,07,19,13.80
2015,06,16,07,20,13.80
2015,06,16,07,21,13.80
2015,06,16,07,22,13.80
2015,06,16,07,23,13.80
2015,06,16,07,24,13.90
2015,06,16,07,25,13.90
2015,06,16,07,26,13.90
2015,06,16,07,27,13.90
2015,06,16,07,28,13.90
2015,06,16,07,29,13.90
2015,06,16,07,30,14.00
2015,06,16,07,31,14.00
2015,06,16,07,32,14.00
2015,06,16,07,33,14.00
2015,06,16,07,34,14.10
2015,06,16,07,35,14.10
2015,06,16,07,36,14.10
2015,06,16,07,37,14.10
2015,06,16,07,38,14.20
2015,06,16,07,39,14.20
2015,06,16,07,40,14.20
2015,06,16,07,41,14.30
2015,06,16,07,42,14.30
2015,06,16,07,43,14.30
2015,06,16,07,44,14.30
2015,06,16,07,45,14.30
2015,06,16,07,46,14.30
2015,06,16,07,47,14.30
2015,06,16,07,48,14.30
2015,06,16,07,49,14.30
2015,06,16,07,50,14.30
2015,06,16,07,51,14.30
2015,06,16,07,52,14.30
2015,06,16,07,53,14.30
2015,06,16,07,54,14.40
2015,06,16,07,55,14.40
2015,06,16,07,56,14.50
2015,06,16,07,57,14.50
2015,06,16,07,58,14.60
2015,06,16,07,59,14.60
2015,06,16,08,00,14.70
2015,06,16,08,01,14.70
2015,06,16,08,02,14.70
2015,06,16,08,03,14.70
2015,06,16,08,04,14.70
2015,06,16,08,05,14.70
2015,06,16,08,06,14.60
2015,06,16,08,07,14.60
2015,06,16,08,08,14.60
2015,06,16,08,09,14.60
2015,06,16,08,10,14.60
2015,06,16,08,11,14.60
2015,06,16,08,12,14.60
2015,06,16,08,13,14.70
2015,06,16,08,14,14.70
2015,06,16,08,15,14.80
2015,06,16,08,16,14.90
2015,06,16,08,17,15.00
2015,06,16,08,18,15.00
2015,06,16,08,19,15.00
2015,06,16,08,20,15.00
2015,06,16,08,21,15.10
2015,06,16,08,22,15.20
2015,06,16,08,23,15.20
2015,06,16,08,24,15.20
2015,06,16,08,25,15.10
2015,06,16,08,26,15.10
2015,06,16,08,27,15.00
2015,06,16,08,28,15.00
2015,06,16,08,29,15.00
2015,06,16,08,30,15.00
2015,06,16,08,31,15.00
2015,06,16,08,32,15.00
2015,06,16,08,33,15.00
2015,06,16,08,34,15.00
2015,06,16,08,35,15.00
2015,06,16,08,36,15.00
2015,06,16,08,37,15.00
2015,06,16,08,38,15.00
2015,06,16,08,39,15.00
2015,06,16,08,40,15.00
2015,06,16,08,41,15.00
2015,06,16,08,42,15.00
2015,06,16,08,43,15.00
2015,06,16,08,44,15.10
2015,06,16,08,45,15.20
2015,06,16,08,46,15.20
2015,06,16,08,47,15.20
2015,06,16,08,48,15.30
2015,06,16,08,49,15.30
2015,06,16,08,50,15.30
2015,06,16,08,51,15.40
2015,06,16,08,52,15.40
2015,06,16,08,53,15.40
2015,06,16,08,54,15.40
2015,06,16,08,55,15.40
2015,06,16,08,56,15.50
2015,06,16,08,57,15.50
2015,06,16,08,58,15.60
2015,06,16,08,59,15.60
2015,06,16,09,00,15.70
2015,06,16,09,01,15.80
2015,06,16,09,02,15.80
2015,06,16,09,03,15.90
2015,06,16,09,04,15.90
2015,06,16,09,05,15.90
2015,06,16,09,06,15.90
2015,06,16,09,07,15.90
2015,06,16,09,08,15.80
2015,06,16,09,09,15.80
2015,06,16,09,10,15.70
2015,06,16,09,11,15.70
2015,06,16,09,12,15.60
2015,06,16,09,13,15.60
2015,06,16,09,14,15.60
2015,06,16,09,15,15.60
2015,06,16,09,16,15.70
2015,06,16,09,17,15.70
2015,06,16,09,18,15.80
2015,06,16,09,19,15.80
2015,06,16,09,20,15.70
2015,06,16,09,21,15.80
2015,06,16,09,22,15.80
2015,06,16,09,23,15.80
2015,06,16,09,24,15.80
2015,06,16,09,25,15.80
2015,06,16,09,26,15.80
2015,06,16,09,27,15.90
2015,06,16,09,28,16.00
2015,06,16,09,29,16.00
2015,06,16,09,30,16.00
2015,06,16,09,31,16.10
2015,06,16,09,32,16.10
2015,06,16,09,33,16.20
2015,06,16,09,34,16.20
2015,06,16,09,35,16.30
2015,06,16,09,36,16.20
2015,06,16,09,37,16.20
2015,06,16,09,38,16.20
2015,06,16,09,39,16.20
2015,06,16,09,40,16.10
2015,06,16,09,41,16.10
2015,06,16,09,42,16.10
2015,06,16,09,43,16.20
2015,06,16,09,44,16.20
2015,06,16,09,45,16.20
2015,06,16,09,46,16.20
2015,06,16,09,47,16.20
2015,06,16,09,48,16.30
2015,06,16,09,49,16.30
2015,06,16,09,50,16.40
2015,06,16,09,51,16.50
2015,06,16,09,52,16.60
2015,06,16,09,53,16.70
2015,06,16,09,54,16.80
2015,06,16,09,55,16.80
2015,06,16,09,56,16.90
2015,06,16,09,57,17.00
2015,06,16,09,58,17.00
2015,06,16,09,59,17.10
2015,06,16,10,00,17.00
2015,06,16,10,01,16.90
2015,06,16,10,02,16.80
2015,06,16,10,03,16.70
2015,06,16,10,04,16.60
2015,06,16,10,05,16.60
2015,06,16,10,06,16.70
2015,06,16,10,07,16.80
2015,06,16,10,08,16.90
2015,06,16,10,09,16.90
2015,06,16,10,10,16.90
2015,06,16,10,11,16.80
2015,06,16,10,12,16.70
2015,06,16,10,13,16.70
2015,06,16,10,14,16.70
2015,06,16,10,15,16.80
2015,06,16,10,16,16.80
2015,06,16,10,17,16.90
2015,06,16,10,18,16.90
2015,06,16,10,19,16.90
2015,06,16,10,20,16.90
2015,06,16,10,21,17.00
2015,06,16,10,22,17.00
2015,06,16,10,23,17.10
2015,06,16,10,24,17.20
2015,06,16,10,25,17.20
2015,06,16,10,26,17.30
2015,06,16,10,27,17.30
2015,06,16,10,28,17.30
2015,06,16,10,29,17.40
2015,06,16,10,30,17.40
2015,06,16,10,31,17.50
2015,06,16,10,32,17.60
2015,06,16,10,33,17.70
2015,06,16,10,34,17.70
2015,06,16,10,35,17.70
2015,06,16,10,36,17.60
2015,06,16,10,37,17.40
2015,06,16,10,38,17.40
2015,06,16,10,39,17.30
2015,06,16,10,40,17.10
2015,06,16,10,41,17.00
2015,06,16,10,42,17.00
2015,06,16,10,43,17.00
2015,06,16,10,44,17.00
2015,06,16,10,45,17.00
2015,06,16,10,46,17.00
2015,06,16,10,47,17.10
2015,06,16,10,48,17.20
2015,06,16,10,49,17.20
2015,06,16,10,50,17.30
2015,06,16,10,51,17.30
2015,06,16,10,52,17.30
2015,06,16,10,53,17.30
2015,06,16,10,54,17.20
2015,06,16,10,55,17.20
2015,06,16,10,56,17.10
2015,06,16,10,57,17.10
2015,06,16,10,58,17.10
2015,06,16,10,59,17.10
2015,06,16,11,00,17.10
2015,06,16,11,01,17.10
2015,06,16,11,02,17.20
2015,06,16,11,03,17.20
2015,06,16,11,04,17.20
2015,06,16,11,05,17.20
2015,06,16,11,06,17.30
2015,06,16,11,07,17.30
2015,06,16,11,08,17.30
2015,06,16,11,09,17.30
2015,06,16,11,10,17.30
2015,06,16,11,11,17.20
2015,06,16,11,12,17.20
2015,06,16,11,13,17.10
2015,06,16,11,14,17.10
2015,06,16,11,15,17.10
2015,06,16,11,16,17.20
2015,06,16,11,17,17.20
2015,06,16,11,18,17.20
2015,06,16,11,19,17.20
2015,06,16,11,20,17.20
2015,06,16,11,21,17.20
2015,06,16,11,22,17.20
2015,06,16,11,23,17.30
2015,06,16,11,24,17.30
2015,06,16,11,25,17.30
2015,06,16,11,26,17.30
2015,06,16,11,27,17.40
2015,06,16,11,28,17.50
2015,06,16,11,29,17.50
2015,06,16,11,30,17.60
2015,06,16,11,31,17.60
2015,06,16,11,32,17.50
2015,06,16,11,33,17.30
2015,06,16,11,34,17.30
2015,06,16,11,35,17.30
2015,06,16,11,36,17.30
2015,06,16,11,37,17.30
2015,06,16,11,38,17.30
2015,06,16,11,39,17.30
2015,06,16,11,40,17.30
2015,06,16,11,41,17.30
2015,06,16,11,42,17.40
2015,06,16,11,43,17.40
2015,06,16,11,44,17.50
2015,06,16,11,45,17.50
2015,06,16,11,46,17.50
2015,06,16,11,47,17.50
2015,06,16,11,48,17.50
2015,06,16,11,49,17.30
2015,06,16,11,50,17.20
2015,06,16,11,51,17.20
2015,06,16,11,52,17.10
2015,06,16,11,53,17.10
2015,06,16,11,54,17.00
2015,06,16,11,55,16.90
2015,06,16,11,56,16.90
2015,06,16,11,57,16.90
2015,06,16,11,58,16.90
2015,06,16,11,59,16.90
2015,06,16,12,00,16.90
2015,06,16,12,01,16.90
2015,06,16,12,02,16.90
2015,06,16,12,03,16.80
2015,06,16,12,04,16.90
2015,06,16,12,05,16.90
2015,06,16,12,06,17.00
2015,06,16,12,07,17.10
2015,06,16,12,08,17.20
2015,06,16,12,09,17.30
2015,06,16,12,10,17.30
2015,06,16,12,11,17.40
2015,06,16,12,12,17.50
2015,06,16,12,13,17.60
2015,06,16,12,14,17.70
2015,06,16,12,15,17.70
2015,06,16,12,16,17.80
2015,06,16,12,17,17.90
2015,06,16,12,18,18.00
2015,06,16,12,19,18.10
2015,06,16,12,20,18.10
2015,06,16,12,21,18.10
2015,06,16,12,22,18.00
2015,06,16,12,23,17.90
2015,06,16,12,24,17.80
2015,06,16,12,25,17.80
2015,06,16,12,26,17.70
2015,06,16,12,27,17.70
2015,06,16,12,28,17.60
2015,06,16,12,29,17.60
2015,06,16,12,30,17.70
2015,06,16,12,31,17.60
2015,06,16,12,32,17.60
2015,06,16,12,33,17.70
2015,06,16,12,34,17.70
2015,06,16,12,35,17.80
2015,06,16,12,36,17.90
2015,06,16,12,37,17.90
2015,06,16,12,38,17.90
2015,06,16,12,39,18.00
2015,06,16,12,40,18.00
2015,06,16,12,41,18.10
2015,06,16,12,42,18.20
2015,06,16,12,43,18.30
2015,06,16,12,44,18.40
2015,06,16,12,45,18.60
2015,06,16,12,46,18.70
2015,06,16,12,47,18.70
2015,06,16,12,48,18.80
2015,06,16,12,49,18.80
2015,06,16,12,50,18.80
2015,06,16,12,51,18.70
2015,06,16,12,52,18.60
2015,06,16,12,53,18.50
2015,06,16,12,54,18.40
2015,06,16,12,55,18.40
2015,06,16,12,56,18.40
2015,06,16,12,57,18.50
2015,06,16,12,58,18.50
2015,06,16,12,59,18.50
2015,06,16,13,00,18.50
2015,06,16,13,01,18.50
2015,06,16,13,02,18.60
2015,06,16,13,03,18.70
2015,06,16,13,04,18.60
2015,06,16,13,05,18.60
2015,06,16,13,06,18.60
2015,06,16,13,07,18.70
2015,06,16,13,08,18.70
2015,06,16,13,09,18.80
2015,06,16,13,10,18.80
2015,06,16,13,11,18.80
2015,06,16,13,12,18.70
2015,06,16,13,13,18.60
2015,06,16,13,14,18.60
2015,06,16,13,15,18.70
2015,06,16,13,16,18.70
2015,06,16,13,17,18.80
2015,06,16,13,18,18.90
2015,06,16,13,19,19.00
2015,06,16,13,20,19.10
2015,06,16,13,21,19.20
2015,06,16,13,22,19.30
2015,06,16,13,23,19.30
2015,06,16,13,24,19.30
2015,06,16,13,25,19.20
2015,06,16,13,26,19.20
2015,06,16,13,27,19.00
2015,06,16,13,28,19.00
2015,06,16,13,29,19.00
2015,06,16,13,30,19.00
2015,06,16,13,31,19.00
2015,06,16,13,32,19.00
2015,06,16,13,33,19.00
2015,06,16,13,34,19.10
2015,06,16,13,35,19.10
2015,06,16,13,36,19.10
2015,06,16,13,37,19.10
2015,06,16,13,38,19.10
2015,06,16,13,39,19.00
2015,06,16,13,40,18.90
2015,06,16,13,41,19.00
2015,06,16,13,42,19.10
2015,06,16,13,43,19.10
2015,06,16,13,44,19.20
2015,06,16,13,45,19.20
2015,06,16,13,46,19.20
2015,06,16,13,47,19.20
2015,06,16,13,48,19.30
2015,06,16,13,49,19.20
2015,06,16,13,50,19.10
2015,06,16,13,51,19.00
2015,06,16,13,52,18.90
2015,06,16,13,53,18.80
2015,06,16,13,54,18.80
2015,06,16,13,55,18.80
2015,06,16,13,56,18.80
2015,06,16,13,57,18.80
2015,06,16,13,58,18.80
2015,06,16,13,59,18.80
2015,06,16,14,00,18.80
2015,06,16,14,01,18.80
2015,06,16,14,02,18.80
2015,06,16,14,03,18.80
2015,06,16,14,04,18.80
2015,06,16,14,05,18.70
2015,06,16,14,06,18.70
2015,06,16,14,07,18.70
2015,06,16,14,08,18.70
2015,06,16,14,09,18.70
2015,06,16,14,10,18.70
2015,06,16,14,11,18.70
2015,06,16,14,12,18.70
2015,06,16,14,13,18.70
2015,06,16,14,14,18.70
2015,06,16,14,15,18.70
2015,06,16,14,16,18.70
2015,06,16,14,17,18.70
2015,06,16,14,18,18.80
2015,06,16,14,19,18.80
2015,06,16,14,20,18.80
2015,06,16,14,21,18.80
2015,06,16,14,22,18.80
2015,06,16,14,23,18.80
2015,06,16,14,24,18.80
2015,06,16,14,25,18.80
2015,06,16,14,26,18.90
2015,06,16,14,27,19.00
2015,06,16,14,28,19.10
2015,06,16,14,29,19.20
2015,06,16,14,30,19.30
2015,06,16,14,31,19.30
2015,06,16,14,32,19.40
2015,06,16,14,33,19.50
2015,06,16,14,34,19.60
2015,06,16,14,35,19.60
2015,06,16,14,36,19.70
2015,06,16,14,37,19.70
2015,06,16,14,38,19.70
2015,06,16,14,39,19.70
2015,06,16,14,40,19.60
2015,06,16,14,41,19.40
2015,06,16,14,42,19.30
2015,06,16,14,43,19.20
2015,06,16,14,44,19.20
2015,06,16,14,45,19.20
2015,06,16,14,46,19.20
2015,06,16,14,47,19.20
2015,06,16,14,48,19.20
2015,06,16,14,49,19.10
2015,06,16,14,50,18.90
2015,06,16,14,51,18.80
2015,06,16,14,52,18.80
2015,06,16,14,53,18.70
2015,06,16,14,54,18.80
2015,06,16,14,55,18.80
2015,06,16,14,56,18.80
2015,06,16,14,57,18.90
2015,06,16,14,58,19.10
2015,06,16,14,59,19.20
2015,06,16,15,00,19.30
2015,06,16,15,01,19.30
2015,06,16,15,02,19.30
2015,06,16,15,03,19.40
2015,06,16,15,04,19.40
2015,06,16,15,05,19.50
2015,06,16,15,06,19.60
2015,06,16,15,07,19.60
2015,06,16,15,08,19.50
2015,06,16,15,09,19.40
2015,06,16,15,10,19.30
2015,06,16,15,11,19.40
2015,06,16,15,12,19.50
2015,06,16,15,13,19.60
2015,06,16,15,14,19.60
2015,06,16,15,15,19.60
2015,06,16,15,16,19.70
2015,06,16,15,17,19.70
2015,06,16,15,18,19.80
2015,06,16,15,19,19.90
2015,06,16,15,20,19.80
2015,06,16,15,21,19.80
2015,06,16,15,22,19.80
2015,06,16,15,23,19.70
2015,06,16,15,24,19.70
2015,06,16,15,25,19.60
2015,06,16,15,26,19.50
2015,06,16,15,27,19.40
2015,06,16,15,28,19.30
2015,06,16,15,29,19.10
2015,06,16,15,30,19.00
2015,06,16,15,31,18.80
2015,06,16,15,32,18.70
2015,06,16,15,33,18.50
2015,06,16,15,34,18.50
2015,06,16,15,35,18.60
2015,06,16,15,36,18.60
2015,06,16,15,37,18.70
2015,06,16,15,38,18.80
2015,06,16,15,39,18.90
2015,06,16,15,40,19.00
2015,06,16,15,41,19.10
2015,06,16,15,42,19.30
2015,06,16,15,43,19.40
2015,06,16,15,44,19.60
2015,06,16,15,45,19.70
2015,06,16,15,46,19.80
2015,06,16,15,47,20.00
2015,06,16,15,48,20.00
2015,06,16,15,49,20.00
2015,06,16,15,50,20.00
2015,06,16,15,51,20.00
2015,06,16,15,52,20.10
2015,06,16,15,53,19.90
2015,06,16,15,54,19.80
2015,06,16,15,55,19.80
2015,06,16,15,56,19.80
2015,06,16,15,57,19.80
2015,06,16,15,58,19.90
2015,06,16,15,59,20.00
2015,06,16,16,00,20.00
2015,06,16,16,01,19.90
2015,06,16,16,02,19.90
2015,06,16,16,03,19.90
2015,06,16,16,04,19.90
2015,06,16,16,05,19.80
2015,06,16,16,06,19.80
2015,06,16,16,07,19.70
2015,06,16,16,08,19.70
2015,06,16,16,09,19.60
2015,06,16,16,10,19.60
2015,06,16,16,11,19.60
2015,06,16,16,12,19.70
2015,06,16,16,13,19.70
2015,06,16,16,14,19.70
2015,06,16,16,15,19.70
2015,06,16,16,16,19.60
2015,06,16,16,17,19.60
2015,06,16,16,18,19.50
2015,06,16,16,19,19.40
2015,06,16,16,20,19.40
2015,06,16,16,21,19.40
2015,06,16,16,22,19.40
2015,06,16,16,23,19.40
2015,06,16,16,24,19.30
2015,06,16,16,25,19.30
2015,06,16,16,26,19.30
2015,06,16,16,27,19.30
2015,06,16,16,28,19.20
2015,06,16,16,29,19.20
2015,06,16,16,30,19.20
2015,06,16,16,31,19.20
2015,06,16,16,32,19.10
2015,06,16,16,33,19.20
2015,06,16,16,34,19.30
2015,06,16,16,35,19.50
2015,06,16,16,36,19.70
2015,06,16,16,37,19.80
2015,06,16,16,38,19.90
2015,06,16,16,39,19.80
2015,06,16,16,40,19.80
2015,06,16,16,41,19.70
2015,06,16,16,42,19.70
2015,06,16,16,43,19.60
2015,06,16,16,44,19.60
2015,06,16,16,45,19.60
2015,06,16,16,46,19.70
2015,06,16,16,47,19.90
2015,06,16,16,48,19.90
2015,06,16,16,49,20.00
2015,06,16,16,50,20.00
2015,06,16,16,51,20.00
2015,06,16,16,52,20.10
2015,06,16,16,53,20.20
2015,06,16,16,54,20.30
2015,06,16,16,55,20.30
2015,06,16,16,56,20.30
2015,06,16,16,57,20.40
2015,06,16,16,58,20.40
2015,06,16,16,59,20.40
2015,06,16,17,00,20.40
2015,06,16,17,01,20.30
2015,06,16,17,02,20.30
2015,06,16,17,03,20.40
2015,06,16,17,04,20.40
2015,06,16,17,05,20.50
2015,06,16,17,06,20.60
2015,06,16,17,07,20.60
2015,06,16,17,08,20.70
2015,06,16,17,09,20.70
2015,06,16,17,10,20.50
2015,06,16,17,11,20.30
2015,06,16,17,12,20.20
2015,06,16,17,13,20.00
2015,06,16,17,14,19.90
2015,06,16,17,15,19.90
2015,06,16,17,16,19.80
2015,06,16,17,17,19.80
2015,06,16,17,18,19.80
2015,06,16,17,19,19.70